User: anonymous
Location: Unspecified
(0.0000°N, 0.0000°E)
Time: 09:26:36
(UTC+00:00)
Language:

Aussat K3 - Orbit

View from above orbital plane
View from above orbital plane
View from above satellite
View from above satellite

Ground track
Ground track

The orbit data is extracted from the following two-line orbital elements,

1 18350U 87078A   14233.91909969  .00000006  00000-0  00000+0 0  1506
2 18350 013.7695 029.1459 0002709 228.1365 122.6785 00.98903673 97816
Epoch (UTC): 21 August 2014 22:03:30
Eccentricity: 0.0002709
inclination: 13.7695°
perigee height: 36162 km
apogee height: 36185 km
right ascension of ascending node: 29.1459°
argument of perigee: 228.1365°
revolutions per day: 0.98903673
mean anomaly at epoch: 122.6785°
orbit number at epoch: 9781

The dashed part of the orbit path shows where the satellite is in the earth's shadow,  

DLR